Вернуться в каталог

FENGYUN 1C DEB

АктивенPO
NORAD 38144·DEBRIS·🇨🇳 China

Запущен May 10, 1999 с Taiyuan Satellite Launch Center

Loading…

Ближайшие Пролёты (ближайшие 24 часа)

TLE

УстаревшееSource: Space-Track

Эпоха: Aug 26, 2026, 06:06 UTC

1 38144U 99025EQR 26238.25434255  .00001015  00000-0  10841-2 0  9999
2 38144  98.9863  46.6094 0287987 247.9915 109.0403 13.59614696645228

Отслеживайте FENGYUN 1C DEB в реальном времени с AllMySat

Download on the App Store